INTELSAT 39 (IS-39)

Last updated on Tue Oct 28 2025 00:02:51 GMT+0000 (Coordinated Universal Time)

1 44476U 19049B 25300.41408595 .00000044 00000+0 00000+0 0 9990 2 44476 0.0147 260.1301 0000574 205.3778 141.5584 1.00271086 22793
UTC large
Height (km)
Speed (km/s)
/
Latitude / Longitude
Inclination (degrees)
Orbital Period (minutes)
Azimuth
Elevation
Range (km)
Doppler Factor

Next 0 passes for location: London (51.5072 / 0.1276)

Sorry there are no passes over London.